Location: Springfield
(37.2150°N, 93.2980°W)
Time: 20:43:33
(UTC-06:00)

N. Korean satellite - Visible Passes

Search period start: 20 January 2018 00:00
Search period end: 30 January 2018 00:00
Orbit: 459 x 515 km, 97.2° (Epoch: 19 January)

Date Brightness Start Highest point End Pass type
(mag) Time Alt. Az. Time Alt. Az. Time Alt. Az.
20 Jan 10.2 05:52:57 10° E 05:53:42 11° E 05:54:26 10° ESE visible
20 Jan 6.6 17:57:46 10° SSE 18:01:19 55° ENE 18:04:49 10° N visible
21 Jan 9.9 19:09:04 10° SW 19:11:15 15° W 19:13:25 10° WNW visible
22 Jan 7.8 06:36:44 10° NNE 06:40:04 45° E 06:43:23 10° S visible
22 Jan 8.6 18:44:16 10° SSW 18:47:29 30° W 18:50:39 10° NW visible
23 Jan 9.4 06:13:37 10° NE 06:16:19 21° E 06:19:01 10° SSE visible
23 Jan 6.9 18:20:13 10° S 18:23:46 67° W 18:27:18 10° NNW visible
24 Jan 10.3 05:51:55 10° E 05:52:30 10° E 05:53:05 10° ESE visible
24 Jan 6.6 17:56:39 10° SSE 18:00:08 53° ENE 18:03:35 10° N visible
25 Jan 9.9 19:07:52 10° SW 19:10:03 15° W 19:12:13 10° NW visible
26 Jan 7.9 06:35:31 10° NNE 06:38:50 44° E 06:42:11 10° S visible
26 Jan 8.6 18:43:05 10° SSW 18:46:16 31° W 18:49:26 10° NNW visible
27 Jan 9.5 06:12:25 10° NE 06:15:06 21° E 06:17:47 10° SSE visible
27 Jan 6.9 18:19:02 10° S 18:22:33 69° W 18:26:03 10° NNW visible
28 Jan 10.4 05:50:53 10° E 05:51:16 10° E 05:51:39 10° E visible
29 Jan 9.8 19:06:37 10° SW 19:08:48 16° W 19:10:59 10° NW visible
